| time (UTC) | temp F | wind direction | speed MPH | gust MPH | rain 1hr in | rain 24hr in | rain mn in | humidity % | barometer mb |
| 20260504070327 | 62 | 325 | 0.0 | 0.0 | 0.00 | 0.00 | 0.00 | 75 | 1007.6 |
| 20260504050342 | 70 | 302 | 0.0 | 0.0 | 0.00 | 0.00 | 0.00 | 64 | 1005.8 |
| 20260504045329 | 70 | 302 | 1.0 | 6.0 | 0.00 | 0.00 | 0.00 | 62 | 1005.4 |
| 20260504044327 | 71 | 294 | 0.0 | 1.0 | 0.00 | 0.00 | 0.00 | 61 | 1005.2 |
| 20260504043324 | 72 | 293 | 0.0 | 7.0 | 0.00 | 0.00 | 0.00 | 60 | 1005.2 |
| 20260504042316 | 72 | 311 | 0.0 | 5.0 | 0.00 | 0.00 | 0.00 | 58 | 1004.9 |
| 20260504041331 | 72 | 252 | 0.0 | 3.0 | 0.00 | 0.00 | 0.00 | 56 | 1004.7 |
| 20260504040350 | 72 | 88 | 0.0 | 0.0 | 0.00 | 0.00 | 0.00 | 56 | 1004.7 |
| 20260504035342 | 72 | 88 | 0.0 | 0.0 | 0.00 | 0.00 | 0.00 | 55 | 1004.6 |
| 20260504034353 | 73 | 87 | 0.0 | 0.0 | 0.00 | 0.00 | 0.00 | 53 | 1004.6 |
| 20260504033323 | 73 | 88 | 0.0 | 5.0 | 0.00 | 0.00 | 0.00 | 52 | 1004.6 |
| 20260504032318 | 75 | 275 | 0.0 | 1.0 | 0.00 | 0.00 | 0.00 | 51 | 1003.7 |
| 20260504031335 | 76 | 275 | 0.0 | 1.0 | 0.00 | 0.00 | 0.00 | 47 | 1004.0 |
| 20260504030329 | 76 | 295 | 0.0 | 1.0 | 0.00 | 0.00 | 0.00 | 46 | 1004.0 |
| 20260504025321 | 77 | 273 | 0.0 | 3.0 | 0.00 | 0.00 | 0.00 | 47 | 1004.0 |
| 20260504024321 | 78 | 296 | 1.0 | 7.0 | 0.00 | 0.00 | 0.00 | 38 | 1003.6 |
| 20260504023334 | 78 | 303 | 1.0 | 4.0 | 0.00 | 0.00 | 0.00 | 35 | 1003.6 |
| 20260504022325 | 79 | 355 | 0.0 | 0.0 | 0.00 | 0.00 | 0.00 | 34 | 1003.6 |
| 20260504021320 | 79 | 344 | 0.0 | 2.0 | 0.00 | 0.00 | 0.00 | 33 | 1004.1 |
| 20260504020346 | 79 | 107 | 0.0 | 6.0 | 0.00 | 0.00 | 0.00 | 34 | 1004.1 |
| 20260504015338 | 79 | 139 | 5.0 | 14.0 | 0.00 | 0.00 | 0.00 | 37 | 1004.6 |
| 20260504014349 | 79 | 91 | 0.0 | 10.0 | 0.00 | 0.00 | 0.00 | 46 | 1004.5 |
| 20260504013321 | 79 | 117 | 2.0 | 6.0 | 0.00 | 0.00 | 0.00 | 51 | 1004.5 |
| 20260504012335 | 81 | 136 | 0.0 | 0.0 | 0.00 | 0.00 | 0.00 | 47 | 1003.7 |
| 20260504011325 | 82 | 136 | 0.0 | 5.0 | 0.00 | 0.00 | 0.00 | 47 | 1003.6 |
| 20260504010320 | 82 | 117 | 0.0 | 4.0 | 0.00 | 0.00 | 0.00 | 52 | 1003.6 |
| 20260504005318 | 81 | 109 | 2.0 | 6.0 | 0.00 | 0.00 | 0.00 | 49 | 1003.5 |
| 20260504004321 | 82 | 126 | 0.0 | 3.0 | 0.00 | 0.00 | 0.00 | 53 | 1003.5 |
| 20260504003328 | 83 | 126 | 0.0 | 0.0 | 0.00 | 0.00 | 0.00 | 47 | 1003.5 |
| 20260504002322 | 83 | 126 | 0.0 | 0.0 | 0.00 | 0.00 | 0.00 | 45 | 1003.5 |
| 20260504001316 | 83 | 126 | 0.0 | 4.0 | 0.00 | 0.00 | 0.00 | 43 | 1003.4 |
| 20260504000325 | 84 | 94 | 0.0 | 4.0 | 0.00 | 0.00 | 0.00 | 44 | 1003.4 |
| 20260503235336 | 85 | 107 | 1.0 | 4.0 | 0.00 | 0.00 | 0.00 | 43 | 1003.4 |
| 20260503234347 | 85 | 275 | 0.0 | 0.0 | 0.00 | 0.00 | 0.00 | 38 | 1003.5 |
| 20260503233321 | 86 | 275 | 0.0 | 1.0 | 0.00 | 0.00 | 0.00 | 38 | 1003.5 |
| 20260503232318 | 87 | 275 | 0.0 | 0.0 | 0.00 | 0.00 | 0.00 | 44 | 1003.5 |
| 20260503231329 | 88 | 275 | 0.0 | 2.0 | 0.00 | 0.00 | 0.00 | 36 | 1003.6 |
| 20260503230321 | 87 | 275 | 1.0 | 3.0 | 0.00 | 0.00 | 0.00 | 37 | 1003.6 |
| 20260503225333 | 86 | 14 | 0.0 | 3.0 | 0.00 | 0.00 | 0.00 | 41 | 1003.9 |
| 20260503224326 | 85 | 19 | 0.0 | 4.0 | 0.00 | 0.00 | 0.00 | 38 | 1004.1 |
| 20260503223337 | 85 | 5 | 0.0 | 2.0 | 0.00 | 0.00 | 0.00 | 43 | 1004.1 |
| 20260503222347 | 85 | 355 | 0.0 | 4.0 | 0.00 | 0.00 | 0.00 | 48 | 1004.1 |
| 20260503221319 | 85 | 5 | 0.0 | 1.0 | 0.00 | 0.00 | 0.00 | 46 | 1004.4 |
| 20260503220350 | 84 | 5 | 0.0 | 3.0 | 0.00 | 0.00 | 0.00 | 44 | 1004.4 |
| 20260503215320 | 83 | 186 | 1.0 | 5.0 | 0.00 | 0.00 | 0.00 | 47 | 1004.6 |
| 20260503214356 | 83 | 242 | 1.0 | 4.0 | 0.00 | 0.00 | 0.00 | 47 | 1005.0 |
| 20260503213328 | 82 | 242 | 1.0 | 5.0 | 0.00 | 0.00 | 0.00 | 46 | 1005.0 |
| 20260503212318 | 81 | 341 | 0.0 | 3.0 | 0.00 | 0.00 | 0.00 | 46 | 1005.3 |
| 20260503211348 | 80 | 347 | 1.0 | 5.0 | 0.00 | 0.00 | 0.00 | 47 | 1005.5 |
| 20260503210319 | 80 | 226 | 0.0 | 5.0 | 0.00 | 0.00 | 0.00 | 46 | 1005.5 |
| 20260503205329 | 80 | 216 | 2.0 | 5.0 | 0.00 | 0.00 | 0.00 | 47 | 1005.6 |
| 20260503204319 | 78 | 293 | 2.0 | 5.0 | 0.00 | 0.00 | 0.00 | 45 | 1005.7 |
| 20260503203317 | 78 | 285 | 0.0 | 4.0 | 0.00 | 0.00 | 0.00 | 53 | 1005.7 |
| 20260503202332 | 77 | 288 | 1.0 | 6.0 | 0.00 | 0.00 | 0.00 | 49 | 1006.1 |
| 20260503201346 | 75 | 278 | 0.0 | 4.0 | 0.00 | 0.00 | 0.00 | 51 | 1006.3 |
| 20260503200316 | 75 | 300 | 1.0 | 4.0 | 0.00 | 0.00 | 0.00 | 55 | 1006.3 |
| 20260503195346 | 75 | 306 | 0.0 | 6.0 | 0.00 | 0.00 | 0.00 | 60 | 1006.6 |
| 20260503194338 | 75 | 267 | 2.0 | 7.0 | 0.00 | 0.00 | 0.00 | 58 | 1006.7 |
| 20260503193351 | 74 | 311 | 1.0 | 5.0 | 0.00 | 0.00 | 0.00 | 62 | 1006.7 |
| 20260503192320 | 74 | 213 | 1.0 | 5.0 | 0.00 | 0.00 | 0.00 | 64 | 1006.8 |
| 20260503191331 | 74 | 209 | 0.0 | 0.0 | 0.00 | 0.00 | 0.00 | 63 | 1007.1 |
| 20260503190323 | 72 | 286 | 0.0 | 4.0 | 0.00 | 0.00 | 0.00 | 68 | 1007.1 |
| 20260503185334 | 71 | 282 | 1.0 | 3.0 | 0.00 | 0.00 | 0.00 | 65 | 1007.2 |
| 20260503184325 | 69 | 51 | 0.0 | 3.0 | 0.00 | 0.00 | 0.00 | 68 | 1007.3 |
| 20260503183319 | 69 | 105 | 0.0 | 0.0 | 0.00 | 0.00 | 0.00 | 69 | 1007.3 |
| 20260503182330 | 68 | 105 | 0.0 | 0.0 | 0.00 | 0.00 | 0.00 | 73 | 1007.4 |
| 20260503181319 | 67 | 105 | 0.0 | 0.0 | 0.00 | 0.00 | 0.00 | 71 | 1007.6 |
| 20260503180331 | 67 | 105 | 0.0 | 3.0 | 0.00 | 0.00 | 0.00 | 72 | 1007.6 |
| 20260503175322 | 67 | 32 | 2.0 | 4.0 | 0.00 | 0.00 | 0.00 | 73 | 1007.7 |
| 20260503174316 | 66 | 106 | 0.0 | 4.0 | 0.00 | 0.00 | 0.00 | 75 | 1007.7 |
| 20260503173352 | 65 | 85 | 0.0 | 3.0 | 0.00 | 0.00 | 0.00 | 76 | 1007.7 |
| 20260503172319 | 64 | 85 | 0.0 | 5.0 | 0.00 | 0.00 | 0.00 | 76 | 1007.8 |
| 20260503171331 | 64 | 53 | 0.0 | 0.0 | 0.00 | 0.00 | 0.00 | 77 | 1008.0 |
| 20260503170324 | 63 | 55 | 0.0 | 0.0 | 0.00 | 0.00 | 0.00 | 78 | 1008.0 |
| 20260503150343 | 52 | 47 | 0.0 | 0.0 | 0.00 | 0.00 | 0.00 | 99 | 1008.5 |
| 20260503131328 | 50 | 277 | 0.0 | 0.0 | 0.00 | 0.00 | 0.00 | 99 | 1007.9 |
| 20260503130324 | 50 | 277 | 0.0 | 0.0 | 0.00 | 0.00 | 0.00 | 99 | 1007.9 |
| 20260503110328 | 50 | 277 | 0.0 | 0.0 | 0.00 | 0.00 | 0.00 | 97 | 1007.9 |
| 20260503090330 | 52 | 277 | 0.0 | 0.0 | 0.00 | 0.00 | 0.00 | 95 | 1008.0 |
| 20260503081338 | 53 | 277 | 0.0 | 0.0 | 0.00 | 0.00 | 0.00 | 94 | 1007.9 |
| 20260503080334 | 54 | 277 | 0.0 | 0.0 | 0.00 | 0.00 | 0.00 | 94 | 1007.9 |